| time (UTC) | temp F | wind direction | speed knots | gust knots | rain 1hr in | rain 24hr in | rain mn in | humidity % | barometer mb |
| 20260506231931 | 58 | 293 | 0.0 | 0.0 | 0.00 | 0.13 | 0.13 | 94 | 1008.7 |
| 20260506231429 | 58 | 241 | 0.9 | 1.7 | 0.00 | 0.13 | 0.13 | 94 | 1008.7 |
| 20260506230926 | 58 | 281 | 0.0 | 0.9 | 0.00 | 0.13 | 0.13 | 94 | 1008.4 |
| 20260506230423 | 58 | 261 | 0.9 | 0.9 | 0.00 | 0.13 | 0.13 | 94 | 1008.7 |
| 20260506225919 | 58 | 279 | 0.0 | 0.0 | 0.05 | 0.13 | 0.13 | 94 | 1008.5 |
| 20260506225417 | 58 | 291 | 0.9 | 0.9 | 0.07 | 0.12 | 0.12 | 94 | 1008.8 |
| 20260506224914 | 58 | 289 | 0.0 | 0.9 | 0.12 | 0.12 | 0.12 | 94 | 1008.5 |
| 20260506224411 | 59 | 282 | 0.0 | 0.9 | 0.05 | 0.11 | 0.11 | 94 | 1008.7 |
| 20260506223907 | 59 | 268 | 0.0 | 1.7 | 0.07 | 0.10 | 0.10 | 94 | 1008.8 |
| 20260506223402 | 59 | 276 | 0.0 | 0.9 | 0.07 | 0.10 | 0.10 | 94 | 1008.6 |
| 20260506222900 | 59 | 280 | 0.9 | 1.7 | 0.00 | 0.09 | 0.09 | 94 | 1008.8 |
| 20260506222356 | 59 | 285 | 0.9 | 0.9 | 0.00 | 0.09 | 0.09 | 94 | 1008.8 |
| 20260506221853 | 59 | 228 | 0.9 | 0.9 | 0.00 | 0.09 | 0.09 | 93 | 1008.8 |
| 20260506221350 | 59 | 232 | 0.9 | 1.7 | 0.00 | 0.09 | 0.09 | 93 | 1009.1 |
| 20260506220848 | 59 | 283 | 0.0 | 1.7 | 0.00 | 0.09 | 0.09 | 93 | 1008.7 |
| 20260506220343 | 59 | 286 | 0.0 | 2.6 | 0.00 | 0.09 | 0.09 | 93 | 1008.9 |
| 20260506215840 | 59 | 266 | 0.9 | 0.9 | 0.00 | 0.09 | 0.09 | 93 | 1009.0 |
| 20260506215336 | 59 | 277 | 0.9 | 1.7 | 0.05 | 0.09 | 0.09 | 93 | 1008.9 |
| 20260506214827 | 59 | 253 | 1.7 | 1.7 | 0.05 | 0.09 | 0.09 | 93 | 1009.0 |
| 20260506214323 | 59 | 225 | 0.9 | 0.9 | 0.00 | 0.08 | 0.08 | 92 | 1008.9 |
| 20260506213822 | 59 | 275 | 0.0 | 0.9 | 0.00 | 0.08 | 0.08 | 92 | 1009.0 |
| 20260506213319 | 59 | 288 | 0.9 | 7.0 | 0.00 | 0.08 | 0.08 | 92 | 1009.1 |
| 20260506212816 | 59 | 290 | 0.9 | 2.6 | 0.00 | 0.08 | 0.08 | 92 | 1009.1 |
| 20260506212312 | 59 | 284 | 0.0 | 1.7 | 0.00 | 0.08 | 0.08 | 92 | 1009.4 |
| 20260506211807 | 59 | 285 | 0.9 | 2.6 | 0.07 | 0.08 | 0.08 | 92 | 1009.5 |
| 20260506211303 | 59 | 303 | 1.7 | 4.3 | 0.07 | 0.08 | 0.08 | 92 | 1009.3 |
| 20260506210800 | 59 | 284 | 0.0 | 1.7 | 0.00 | 0.07 | 0.07 | 92 | 1009.3 |
| 20260506210257 | 59 | 255 | 1.7 | 1.7 | 0.00 | 0.07 | 0.07 | 91 | 1009.3 |
| 20260506205754 | 59 | 283 | 0.0 | 2.6 | 0.00 | 0.07 | 0.07 | 91 | 1009.5 |
| 20260506205250 | 59 | 112 | 5.2 | 6.1 | 0.00 | 0.07 | 0.07 | 91 | 1009.6 |
| 20260506204747 | 59 | 271 | 0.9 | 4.3 | 0.00 | 0.07 | 0.07 | 91 | 1009.4 |
| 20260506204245 | 59 | 216 | 0.0 | 1.7 | 0.00 | 0.07 | 0.07 | 91 | 1009.6 |
| 20260506203742 | 59 | 269 | 0.0 | 0.9 | 0.00 | 0.07 | 0.07 | 91 | 1009.6 |
| 20260506203239 | 59 | 43 | 0.9 | 1.7 | 0.00 | 0.07 | 0.07 | 91 | 1009.6 |
| 20260506202736 | 60 | 263 | 0.9 | 5.2 | 0.00 | 0.07 | 0.07 | 91 | 1009.8 |
| 20260506202233 | 60 | 268 | 0.9 | 1.7 | 0.00 | 0.07 | 0.07 | 90 | 1009.5 |
| 20260506201730 | 60 | 261 | 0.9 | 1.7 | 0.00 | 0.07 | 0.07 | 90 | 1009.8 |
| 20260506201227 | 59 | 313 | 1.7 | 1.7 | 0.00 | 0.07 | 0.07 | 90 | 1009.7 |
| 20260506200724 | 60 | 216 | 0.9 | 5.2 | 0.05 | 0.07 | 0.07 | 90 | 1009.7 |
| 20260506200220 | 60 | 276 | 2.6 | 4.3 | 0.00 | 0.06 | 0.06 | 89 | 1009.6 |
| 20260506195716 | 60 | 300 | 1.7 | 2.6 | 0.00 | 0.06 | 0.06 | 90 | 1009.8 |
| 20260506195213 | 60 | 285 | 0.0 | 2.6 | 0.00 | 0.06 | 0.06 | 90 | 1009.9 |
| 20260506194710 | 60 | 192 | 1.7 | 2.6 | 0.00 | 0.06 | 0.06 | 90 | 1009.7 |
| 20260506194207 | 60 | 294 | 0.9 | 6.1 | 0.00 | 0.06 | 0.06 | 90 | 1009.8 |
| 20260506193705 | 61 | 284 | 0.0 | 1.7 | 0.00 | 0.06 | 0.06 | 90 | 1009.8 |
| 20260506193201 | 61 | 285 | 0.0 | 1.7 | 0.07 | 0.06 | 0.06 | 89 | 1009.8 |
| 20260506192658 | 61 | 286 | 0.9 | 2.6 | 0.07 | 0.06 | 0.06 | 89 | 1009.7 |
| 20260506192154 | 61 | 318 | 0.9 | 2.6 | 0.05 | 0.05 | 0.05 | 89 | 1009.9 |
| 20260506191651 | 61 | 145 | 0.9 | 6.1 | 0.05 | 0.05 | 0.05 | 89 | 1009.9 |
| 20260506191147 | 61 | 290 | 0.0 | 1.7 | 0.07 | 0.04 | 0.04 | 88 | 1009.9 |
| 20260506190645 | 62 | 261 | 1.7 | 2.6 | 0.07 | 0.04 | 0.04 | 87 | 1009.9 |
| 20260506190141 | 62 | 187 | 1.7 | 1.7 | 0.00 | 0.03 | 0.03 | 87 | 1009.8 |
| 20260506185638 | 62 | 258 | 0.9 | 1.7 | 0.05 | 0.03 | 0.03 | 86 | 1009.9 |
| 20260506185134 | 62 | 301 | 0.9 | 1.7 | 0.05 | 0.03 | 0.03 | 85 | 1010.0 |
| 20260506184632 | 63 | 236 | 0.9 | 1.7 | 0.07 | 0.02 | 0.02 | 84 | 1009.8 |
| 20260506184129 | 63 | 307 | 1.7 | 2.6 | 0.07 | 0.02 | 0.02 | 82 | 1010.1 |
| 20260506183626 | 63 | 316 | 0.0 | 2.6 | 0.07 | 0.01 | 0.01 | 81 | 1010.3 |
| 20260506183122 | 64 | 252 | 0.9 | 1.7 | 0.07 | 0.01 | 0.01 | 80 | 1010.3 |
| 20260506182620 | 65 | 113 | 0.9 | 2.6 | 0.00 | 0.00 | 0.00 | 79 | 1010.2 |
| 20260506182116 | 65 | 305 | 0.0 | 1.7 | 0.00 | 0.00 | 0.00 | 77 | 1010.6 |
| 20260506181614 | 66 | 303 | 0.9 | 1.7 | 0.00 | 0.00 | 0.00 | 76 | 1010.4 |
| 20260506181111 | 66 | 287 | 0.9 | 2.6 | 0.00 | 0.00 | 0.00 | 75 | 1010.2 |
| 20260506180608 | 67 | 284 | 0.9 | 2.6 | 0.00 | 0.00 | 0.00 | 74 | 1010.3 |
| 20260506180105 | 67 | 294 | 2.6 | 7.0 | 0.00 | 0.00 | 0.00 | 71 | 1010.4 |
| 20260506175601 | 68 | 321 | 0.9 | 12.2 | 0.00 | 0.00 | 0.00 | 70 | 1010.7 |
| 20260506175057 | 68 | 297 | 2.6 | 5.2 | 0.00 | 0.00 | 0.00 | 68 | 1010.5 |
| 20260506174556 | 69 | 295 | 3.5 | 7.8 | 0.00 | 0.00 | 0.00 | 67 | 1010.6 |
| 20260506174051 | 70 | 301 | 0.9 | 2.6 | 0.00 | 0.00 | 0.00 | 66 | 1010.4 |
| 20260506173549 | 71 | 317 | 2.6 | 4.3 | 0.00 | 0.00 | 0.00 | 63 | 1010.5 |
| 20260506173046 | 72 | 234 | 0.9 | 2.6 | 0.00 | 0.00 | 0.00 | 59 | 1010.2 |
| 20260506172544 | 72 | 246 | 0.9 | 7.0 | 0.00 | 0.00 | 0.00 | 59 | 1010.2 |
| 20260506172040 | 72 | 288 | 1.7 | 5.2 | 0.00 | 0.00 | 0.00 | 58 | 1010.3 |
| 20260506171537 | 73 | 354 | 5.2 | 7.0 | 0.00 | 0.00 | 0.00 | 57 | 1010.1 |
| 20260506171035 | 73 | 249 | 1.7 | 4.3 | 0.00 | 0.00 | 0.00 | 57 | 1010.2 |
| 20260506170532 | 72 | 324 | 1.7 | 5.2 | 0.00 | 0.00 | 0.00 | 57 | 1010.2 |
| 20260506170024 | 72 | 296 | 2.6 | 5.2 | 0.00 | 0.00 | 0.00 | 56 | 1010.2 |
| 20260506165522 | 73 | 196 | 2.6 | 4.3 | 0.00 | 0.00 | 0.00 | 57 | 1010.6 |
| 20260506165018 | 73 | 314 | 2.6 | 5.2 | 0.00 | 0.00 | 0.00 | 57 | 1010.5 |
| 20260506164515 | 72 | 125 | 3.5 | 7.0 | 0.00 | 0.00 | 0.00 | 56 | 1010.7 |
| 20260506164012 | 72 | 264 | 4.3 | 7.8 | 0.00 | 0.00 | 0.00 | 57 | 1010.6 |
| 20260506163507 | 71 | 308 | 2.6 | 4.3 | 0.00 | 0.00 | 0.00 | 60 | 1010.7 |
| 20260506163002 | 71 | 281 | 5.2 | 11.3 | 0.00 | 0.00 | 0.00 | 58 | 1010.9 |
| 20260506162459 | 71 | 293 | 0.9 | 9.6 | 0.00 | 0.00 | 0.00 | 60 | 1010.9 |
| 20260506161951 | 72 | 267 | 1.7 | 7.8 | 0.00 | 0.00 | 0.00 | 59 | 1010.7 |
| 20260506161449 | 71 | 301 | 0.9 | 5.2 | 0.00 | 0.00 | 0.00 | 58 | 1010.7 |
| 20260506160946 | 71 | 274 | 2.6 | 4.3 | 0.00 | 0.00 | 0.00 | 59 | 1010.8 |
| 20260506160444 | 71 | 34 | 3.5 | 5.2 | 0.00 | 0.00 | 0.00 | 59 | 1011.2 |
| 20260506155941 | 71 | 338 | 1.7 | 5.2 | 0.00 | 0.00 | 0.00 | 59 | 1011.2 |
| 20260506155438 | 71 | 306 | 0.9 | 6.1 | 0.00 | 0.00 | 0.00 | 60 | 1011.2 |
| 20260506153605 | 70 | 190 | 2.6 | 4.3 | 0.00 | 0.00 | 0.00 | 62 | 1011.4 |
| 20260506153103 | 70 | 165 | 0.9 | 5.2 | 0.00 | 0.00 | 0.00 | 62 | 1011.5 |
| 20260506152559 | 70 | 263 | 0.9 | 1.7 | 0.00 | 0.00 | 0.00 | 62 | 1011.5 |
| 20260506152057 | 70 | 324 | 1.7 | 2.6 | 0.00 | 0.00 | 0.00 | 62 | 1011.6 |
| 20260506151555 | 70 | 291 | 1.7 | 6.1 | 0.00 | 0.00 | 0.00 | 62 | 1011.8 |
| 20260506151052 | 70 | 257 | 0.9 | 1.7 | 0.00 | 0.00 | 0.00 | 62 | 1012.0 |
| 20260506150548 | 71 | 78 | 2.6 | 4.3 | 0.00 | 0.00 | 0.00 | 62 | 1011.8 |
| 20260506150045 | 70 | 257 | 4.3 | 6.1 | 0.00 | 0.00 | 0.00 | 62 | 1011.9 |
| 20260506145542 | 70 | 198 | 1.7 | 4.3 | 0.00 | 0.00 | 0.00 | 63 | 1012.0 |
| 20260506145040 | 70 | 153 | 2.6 | 4.3 | 0.00 | 0.00 | 0.00 | 63 | 1011.9 |
| 20260506144536 | 70 | 338 | 2.6 | 4.3 | 0.00 | 0.00 | 0.00 | 64 | 1011.8 |
| 20260506144033 | 70 | 278 | 0.9 | 1.7 | 0.00 | 0.00 | 0.00 | 64 | 1011.9 |
| 20260506143531 | 70 | 295 | 0.9 | 1.7 | 0.00 | 0.00 | 0.00 | 64 | 1011.8 |
| 20260506143029 | 69 | 216 | 1.7 | 6.1 | 0.00 | 0.00 | 0.00 | 66 | 1012.0 |
| 20260506142527 | 69 | 216 | 0.9 | 2.6 | 0.00 | 0.00 | 0.00 | 66 | 1012.0 |
| 20260506142025 | 68 | 174 | 0.0 | 4.3 | 0.00 | 0.00 | 0.00 | 66 | 1011.9 |
| 20260506141522 | 68 | 283 | 1.7 | 4.3 | 0.00 | 0.00 | 0.00 | 67 | 1011.9 |
| 20260506141021 | 68 | 298 | 1.7 | 1.7 | 0.00 | 0.00 | 0.00 | 68 | 1012.0 |
| 20260506140517 | 68 | 295 | 1.7 | 4.3 | 0.00 | 0.00 | 0.00 | 69 | 1011.9 |
| 20260506140015 | 67 | 296 | 0.9 | 5.2 | 0.00 | 0.00 | 0.00 | 70 | 1011.9 |
| 20260506135511 | 68 | 299 | 1.7 | 2.6 | 0.00 | 0.00 | 0.00 | 70 | 1011.8 |
| 20260506135008 | 68 | 285 | 0.9 | 4.3 | 0.00 | 0.00 | 0.00 | 69 | 1012.0 |
| 20260506134504 | 68 | 303 | 2.6 | 4.3 | 0.00 | 0.00 | 0.00 | 70 | 1012.2 |
| 20260506134000 | 66 | 230 | 1.7 | 1.7 | 0.00 | 0.00 | 0.00 | 71 | 1011.8 |
| 20260506133457 | 66 | 352 | 1.7 | 2.6 | 0.00 | 0.00 | 0.00 | 72 | 1012.1 |
| 20260506132954 | 66 | 164 | 1.7 | 2.6 | 0.00 | 0.00 | 0.00 | 71 | 1012.0 |
| 20260506132451 | 66 | 312 | 1.7 | 7.0 | 0.00 | 0.00 | 0.00 | 72 | 1012.0 |
| 20260506131949 | 65 | 182 | 0.0 | 2.6 | 0.00 | 0.00 | 0.00 | 73 | 1012.6 |
| 20260506131445 | 66 | 263 | 0.0 | 0.9 | 0.00 | 0.00 | 0.00 | 72 | 1012.7 |
| 20260506130942 | 65 | 143 | 0.9 | 2.6 | 0.00 | 0.00 | 0.00 | 73 | 1012.6 |
| 20260506130439 | 64 | 261 | 0.9 | 0.9 | 0.00 | 0.00 | 0.00 | 74 | 1012.6 |
| 20260506125937 | 64 | 146 | 1.7 | 2.6 | 0.00 | 0.00 | 0.00 | 74 | 1012.6 |
| 20260506125435 | 64 | 293 | 0.0 | 4.3 | 0.00 | 0.00 | 0.00 | 75 | 1012.6 |
| 20260506124933 | 64 | 186 | 1.7 | 2.6 | 0.00 | 0.00 | 0.00 | 74 | 1012.3 |
| 20260506124430 | 64 | 297 | 0.9 | 1.7 | 0.00 | 0.00 | 0.00 | 74 | 1012.8 |
| 20260506123928 | 65 | 286 | 0.0 | 1.7 | 0.00 | 0.00 | 0.00 | 73 | 1012.3 |
| 20260506123425 | 65 | 300 | 1.7 | 7.0 | 0.00 | 0.00 | 0.00 | 73 | 1012.7 |
| 20260506122923 | 64 | 291 | 0.9 | 1.7 | 0.00 | 0.00 | 0.00 | 73 | 1012.4 |
| 20260506122419 | 64 | 265 | 0.9 | 4.3 | 0.00 | 0.00 | 0.00 | 74 | 1012.7 |
| 20260506121918 | 64 | 275 | 0.0 | 2.6 | 0.00 | 0.00 | 0.00 | 74 | 1012.7 |
| 20260506121414 | 64 | 108 | 1.7 | 5.2 | 0.00 | 0.00 | 0.00 | 73 | 1012.7 |
| 20260506120911 | 64 | 281 | 0.0 | 0.9 | 0.00 | 0.00 | 0.00 | 74 | 1012.6 |
| 20260506120409 | 63 | 262 | 0.0 | 2.6 | 0.00 | 0.00 | 0.00 | 75 | 1012.6 |
| 20260506115906 | 63 | 298 | 0.0 | 1.7 | 0.00 | 0.00 | 0.00 | 75 | 1012.3 |
| 20260506115404 | 63 | 164 | 0.9 | 2.6 | 0.00 | 0.00 | 0.00 | 75 | 1012.4 |
| 20260506114902 | 63 | 293 | 1.7 | 4.3 | 0.00 | 0.00 | 0.00 | 75 | 1012.6 |
| 20260506114359 | 63 | 268 | 0.9 | 1.7 | 0.00 | 0.00 | 0.00 | 76 | 1012.7 |
| 20260506113858 | 62 | 256 | 0.9 | 1.7 | 0.00 | 0.00 | 0.00 | 76 | 1012.7 |
| 20260506113355 | 61 | 122 | 1.7 | 1.7 | 0.00 | 0.00 | 0.00 | 77 | 1012.9 |
| 20260506112851 | 60 | 282 | 1.7 | 1.7 | 0.00 | 0.00 | 0.00 | 79 | 1012.8 |
| 20260506112349 | 60 | 286 | 0.0 | 6.1 | 0.00 | 0.00 | 0.00 | 79 | 1012.8 |
| 20260506111846 | 61 | 332 | 0.9 | 1.7 | 0.00 | 0.00 | 0.00 | 79 | 1013.3 |
| 20260506111344 | 60 | 276 | 0.0 | 1.7 | 0.00 | 0.00 | 0.00 | 79 | 1013.3 |
| 20260506110841 | 60 | 250 | 0.9 | 0.9 | 0.00 | 0.00 | 0.00 | 79 | 1012.9 |
| 20260506110338 | 60 | 66 | 2.6 | 4.3 | 0.00 | 0.00 | 0.00 | 80 | 1013.1 |
| 20260506105835 | 60 | 253 | 0.0 | 0.9 | 0.00 | 0.00 | 0.00 | 80 | 1012.9 |
| 20260506105331 | 60 | 290 | 0.9 | 1.7 | 0.00 | 0.00 | 0.00 | 80 | 1013.0 |
| 20260506104829 | 60 | 295 | 0.9 | 1.7 | 0.00 | 0.00 | 0.00 | 80 | 1012.8 |
| 20260506104327 | 59 | 160 | 0.0 | 6.1 | 0.00 | 0.00 | 0.00 | 82 | 1012.9 |
| 20260506103824 | 59 | 67 | 2.6 | 2.6 | 0.00 | 0.00 | 0.00 | 83 | 1012.9 |
| 20260506103322 | 58 | 254 | 0.9 | 1.7 | 0.00 | 0.00 | 0.00 | 84 | 1013.0 |
| 20260506102819 | 58 | 255 | 0.0 | 0.9 | 0.00 | 0.00 | 0.00 | 84 | 1012.9 |
| 20260506102317 | 57 | 257 | 0.0 | 0.9 | 0.00 | 0.00 | 0.00 | 84 | 1012.6 |
| 20260506101814 | 57 | 290 | 0.0 | 1.7 | 0.00 | 0.00 | 0.00 | 84 | 1012.9 |
| 20260506101310 | 57 | 342 | 1.7 | 1.7 | 0.00 | 0.00 | 0.00 | 84 | 1013.0 |
| 20260506100808 | 58 | 253 | 0.0 | 0.9 | 0.00 | 0.00 | 0.00 | 84 | 1013.0 |
| 20260506100306 | 57 | 286 | 0.0 | 0.9 | 0.00 | 0.00 | 0.00 | 83 | 1012.8 |
| 20260506095804 | 57 | 305 | 0.9 | 1.7 | 0.00 | 0.00 | 0.00 | 84 | 1013.0 |
| 20260506095301 | 58 | 41 | 0.9 | 1.7 | 0.00 | 0.00 | 0.00 | 83 | 1013.0 |
| 20260506094757 | 57 | 279 | 1.7 | 4.3 | 0.00 | 0.00 | 0.00 | 84 | 1012.8 |
| 20260506094256 | 57 | 285 | 0.9 | 1.7 | 0.00 | 0.00 | 0.00 | 83 | 1012.6 |
| 20260506093754 | 57 | 261 | 1.7 | 1.7 | 0.00 | 0.00 | 0.00 | 83 | 1012.7 |
| 20260506093250 | 57 | 282 | 0.0 | 0.9 | 0.00 | 0.00 | 0.00 | 83 | 1012.7 |
| 20260506092749 | 57 | 291 | 0.0 | 0.9 | 0.00 | 0.00 | 0.00 | 83 | 1012.6 |
| 20260506092246 | 57 | 352 | 0.9 | 4.3 | 0.00 | 0.00 | 0.00 | 83 | 1012.7 |
| 20260506091743 | 57 | 268 | 0.9 | 1.7 | 0.00 | 0.00 | 0.00 | 83 | 1012.7 |
| 20260506091241 | 58 | 257 | 0.9 | 1.7 | 0.00 | 0.00 | 0.00 | 83 | 1012.7 |
| 20260506090739 | 58 | 291 | 0.0 | 0.9 | 0.00 | 0.00 | 0.00 | 82 | 1012.9 |
| 20260506090235 | 58 | 288 | 0.0 | 2.6 | 0.00 | 0.00 | 0.00 | 82 | 1012.6 |
| 20260506085732 | 58 | 322 | 0.0 | 1.7 | 0.00 | 0.00 | 0.00 | 82 | 1012.7 |
| 20260506085228 | 58 | 169 | 1.7 | 1.7 | 0.00 | 0.00 | 0.00 | 82 | 1012.8 |
| 20260506084725 | 58 | 283 | 0.0 | 0.9 | 0.00 | 0.00 | 0.00 | 82 | 1012.8 |
| 20260506084221 | 58 | 307 | 1.7 | 4.3 | 0.00 | 0.00 | 0.00 | 81 | 1013.0 |
| 20260506083718 | 58 | 305 | 0.9 | 1.7 | 0.00 | 0.00 | 0.00 | 81 | 1012.9 |
| 20260506083216 | 58 | 289 | 0.9 | 2.6 | 0.00 | 0.00 | 0.00 | 81 | 1012.9 |
| 20260506082713 | 58 | 274 | 1.7 | 4.3 | 0.00 | 0.00 | 0.00 | 81 | 1013.1 |
| 20260506082209 | 58 | 283 | 0.0 | 0.9 | 0.00 | 0.00 | 0.00 | 81 | 1013.0 |
| 20260506081707 | 58 | 277 | 2.6 | 2.6 | 0.00 | 0.00 | 0.00 | 81 | 1013.0 |
| 20260506081204 | 58 | 193 | 0.9 | 1.7 | 0.00 | 0.00 | 0.00 | 80 | 1013.0 |
| 20260506080702 | 59 | 300 | 0.9 | 1.7 | 0.00 | 0.00 | 0.00 | 80 | 1013.0 |
| 20260506080158 | 59 | 306 | 0.0 | 1.7 | 0.00 | 0.00 | 0.00 | 79 | 1012.9 |
| 20260506073143 | 59 | 320 | 2.6 | 5.2 | 0.00 | 0.00 | 0.00 | 78 | 1012.9 |
| 20260506072638 | 59 | 299 | 0.9 | 4.3 | 0.00 | 0.00 | 0.00 | 78 | 1013.0 |
| 20260506072137 | 60 | 332 | 1.7 | 4.3 | 0.00 | 0.00 | 0.00 | 77 | 1012.8 |
| 20260506071634 | 60 | 345 | 1.7 | 1.7 | 0.00 | 0.00 | 0.00 | 77 | 1012.6 |
| 20260506071131 | 60 | 283 | 3.5 | 6.1 | 0.00 | 0.00 | 0.00 | 76 | 1012.8 |
| 20260506070628 | 60 | 308 | 1.7 | 11.3 | 0.00 | 0.00 | 0.00 | 76 | 1012.6 |
| 20260506070125 | 60 | 280 | 0.9 | 4.3 | 0.00 | 0.00 | 0.00 | 76 | 1012.4 |
| 20260506062103 | 61 | 283 | 0.9 | 1.7 | 0.00 | 0.00 | 0.00 | 75 | 1012.2 |
| 20260506061558 | 61 | 282 | 0.9 | 7.8 | 0.00 | 0.00 | 0.00 | 75 | 1012.3 |
| 20260506061056 | 62 | 271 | 0.9 | 1.7 | 0.00 | 0.00 | 0.00 | 74 | 1012.3 |
| 20260506060555 | 62 | 286 | 0.0 | 0.9 | 0.00 | 0.00 | 0.00 | 74 | 1012.4 |
| 20260506051023 | 62 | 81 | 2.6 | 4.3 | 0.00 | 0.00 | 0.00 | 70 | 1012.8 |
| 20260506050521 | 62 | 298 | 0.9 | 2.6 | 0.00 | 0.00 | 0.00 | 70 | 1012.7 |
| 20260506045011 | 62 | 74 | 2.6 | 5.2 | 0.00 | 0.00 | 0.00 | 69 | 1012.8 |
| 20260506044510 | 62 | 306 | 0.9 | 1.7 | 0.00 | 0.00 | 0.00 | 69 | 1013.0 |
| 20260506044006 | 62 | 271 | 0.9 | 5.2 | 0.00 | 0.00 | 0.00 | 69 | 1012.6 |
| 20260506043503 | 62 | 49 | 1.7 | 2.6 | 0.00 | 0.00 | 0.00 | 69 | 1013.0 |
| 20260506043001 | 62 | 7 | 3.5 | 6.1 | 0.00 | 0.00 | 0.00 | 68 | 1012.8 |
| 20260506042500 | 62 | 84 | 2.6 | 4.3 | 0.00 | 0.00 | 0.00 | 68 | 1012.8 |
| 20260506041958 | 62 | 156 | 1.7 | 2.6 | 0.00 | 0.00 | 0.00 | 68 | 1013.0 |
| 20260506041456 | 62 | 262 | 0.9 | 7.0 | 0.00 | 0.00 | 0.00 | 68 | 1012.8 |
| 20260506040953 | 62 | 298 | 0.9 | 4.3 | 0.00 | 0.00 | 0.00 | 69 | 1012.8 |
| 20260506040451 | 62 | 287 | 0.0 | 5.2 | 0.00 | 0.00 | 0.00 | 68 | 1013.2 |
| 20260506035946 | 62 | 293 | 0.0 | 2.6 | 0.00 | 0.00 | 0.00 | 69 | 1012.9 |
| 20260506035443 | 62 | 341 | 1.7 | 6.1 | 0.00 | 0.00 | 0.00 | 69 | 1012.8 |
| 20260506034940 | 62 | 302 | 0.0 | 1.7 | 0.00 | 0.00 | 0.00 | 69 | 1012.9 |
| 20260506034438 | 62 | 350 | 1.7 | 2.6 | 0.00 | 0.00 | 0.00 | 69 | 1013.1 |
| 20260506033935 | 61 | 82 | 0.9 | 2.6 | 0.00 | 0.00 | 0.00 | 70 | 1012.8 |
| 20260506033432 | 62 | 299 | 0.9 | 2.6 | 0.00 | 0.00 | 0.00 | 69 | 1013.1 |
| 20260506032928 | 61 | 301 | 1.7 | 1.7 | 0.00 | 0.00 | 0.00 | 70 | 1012.8 |
| 20260506032426 | 62 | 278 | 0.9 | 2.6 | 0.00 | 0.00 | 0.00 | 70 | 1012.8 |
| 20260506031922 | 62 | 256 | 0.9 | 0.9 | 0.00 | 0.00 | 0.00 | 69 | 1012.7 |
| 20260506031419 | 61 | 23 | 0.9 | 2.6 | 0.00 | 0.00 | 0.00 | 69 | 1012.7 |
| 20260506030917 | 61 | 276 | 0.0 | 1.7 | 0.00 | 0.00 | 0.00 | 70 | 1013.0 |
| 20260506030415 | 61 | 307 | 1.7 | 7.0 | 0.00 | 0.00 | 0.00 | 69 | 1013.0 |
| 20260506025911 | 61 | 237 | 0.9 | 2.6 | 0.00 | 0.00 | 0.00 | 69 | 1012.9 |
| 20260506025409 | 61 | 297 | 0.9 | 1.7 | 0.00 | 0.00 | 0.00 | 69 | 1012.8 |
| 20260506024905 | 62 | 286 | 0.0 | 1.7 | 0.00 | 0.00 | 0.00 | 68 | 1012.9 |
| 20260506024402 | 62 | 354 | 0.9 | 1.7 | 0.00 | 0.00 | 0.00 | 68 | 1013.0 |
| 20260506023858 | 62 | 223 | 0.9 | 2.6 | 0.00 | 0.00 | 0.00 | 67 | 1012.8 |
| 20260506023355 | 62 | 321 | 1.7 | 5.2 | 0.00 | 0.00 | 0.00 | 67 | 1012.9 |
| 20260506022852 | 62 | 49 | 3.5 | 6.1 | 0.00 | 0.00 | 0.00 | 67 | 1012.8 |
| 20260506022349 | 62 | 214 | 0.9 | 2.6 | 0.00 | 0.00 | 0.00 | 66 | 1013.0 |
| 20260506021847 | 62 | 313 | 0.9 | 7.0 | 0.00 | 0.00 | 0.00 | 66 | 1012.7 |
| 20260506021344 | 63 | 184 | 1.7 | 2.6 | 0.00 | 0.00 | 0.00 | 66 | 1012.9 |
| 20260506020840 | 63 | 299 | 0.9 | 2.6 | 0.00 | 0.00 | 0.00 | 65 | 1012.9 |
| 20260506020339 | 63 | 258 | 0.0 | 2.6 | 0.00 | 0.00 | 0.00 | 65 | 1012.9 |
| 20260506015836 | 63 | 266 | 0.9 | 1.7 | 0.00 | 0.00 | 0.00 | 65 | 1012.8 |
| 20260506015333 | 63 | 73 | 1.7 | 1.7 | 0.00 | 0.00 | 0.00 | 65 | 1012.6 |
| 20260506014830 | 63 | 273 | 0.9 | 1.7 | 0.00 | 0.00 | 0.00 | 65 | 1012.7 |
| 20260506014327 | 63 | 340 | 2.6 | 5.2 | 0.00 | 0.00 | 0.00 | 64 | 1012.6 |
| 20260506013823 | 63 | 290 | 1.7 | 5.2 | 0.00 | 0.00 | 0.00 | 64 | 1012.6 |
| 20260506013321 | 64 | 230 | 0.9 | 1.7 | 0.00 | 0.00 | 0.00 | 64 | 1012.4 |
| 20260506012817 | 64 | 284 | 2.6 | 6.1 | 0.00 | 0.00 | 0.00 | 63 | 1012.4 |
| 20260506012314 | 64 | 336 | 0.9 | 0.9 | 0.00 | 0.00 | 0.00 | 63 | 1012.4 |
| 20260506011812 | 64 | 302 | 1.7 | 1.7 | 0.00 | 0.00 | 0.00 | 63 | 1012.1 |
| 20260506011308 | 64 | 275 | 0.0 | 2.6 | 0.00 | 0.00 | 0.00 | 63 | 1012.3 |
| 20260506010806 | 65 | 211 | 0.9 | 2.6 | 0.00 | 0.00 | 0.00 | 62 | 1011.9 |
| 20260506010303 | 65 | 219 | 1.7 | 2.6 | 0.00 | 0.00 | 0.00 | 62 | 1011.9 |
| 20260506005800 | 65 | 233 | 0.9 | 2.6 | 0.00 | 0.00 | 0.00 | 61 | 1011.9 |
| 20260506005257 | 65 | 233 | 2.6 | 7.0 | 0.00 | 0.00 | 0.00 | 61 | 1012.1 |
| 20260506004753 | 66 | 230 | 0.9 | 2.6 | 0.00 | 0.00 | 0.00 | 61 | 1011.9 |
| 20260506004251 | 66 | 317 | 1.7 | 4.3 | 0.00 | 0.00 | 0.00 | 60 | 1011.8 |
| 20260506003746 | 66 | 328 | 0.0 | 2.6 | 0.00 | 0.00 | 0.00 | 59 | 1011.8 |
| 20260506003243 | 67 | 209 | 0.9 | 1.7 | 0.00 | 0.00 | 0.00 | 59 | 1011.8 |
| 20260506002739 | 67 | 73 | 2.6 | 2.6 | 0.00 | 0.00 | 0.00 | 58 | 1011.6 |
| 20260506002235 | 67 | 285 | 0.9 | 5.2 | 0.00 | 0.00 | 0.00 | 58 | 1011.6 |
| 20260506001731 | 68 | 291 | 0.0 | 0.9 | 0.00 | 0.00 | 0.00 | 57 | 1011.1 |
| 20260506001229 | 68 | 284 | 1.7 | 2.6 | 0.00 | 0.00 | 0.00 | 56 | 1011.2 |
| 20260506000726 | 68 | 285 | 2.6 | 7.0 | 0.00 | 0.00 | 0.00 | 55 | 1011.2 |
| 20260506000223 | 68 | 0 | 2.6 | 7.0 | 0.00 | 0.00 | 0.00 | 55 | 1010.9 |
| 20260505235720 | 68 | 291 | 0.9 | 5.2 | 0.00 | 0.00 | 0.00 | 55 | 1011.1 |
| 20260505235218 | 69 | 311 | 1.7 | 5.2 | 0.00 | 0.00 | 0.00 | 55 | 1010.8 |
| 20260505234715 | 69 | 311 | 1.7 | 5.2 | 0.00 | 0.00 | 0.00 | 53 | 1010.7 |
| 20260505234212 | 69 | 322 | 0.0 | 7.8 | 0.00 | 0.00 | 0.00 | 53 | 1011.0 |
| 20260505233708 | 70 | 313 | 0.9 | 4.3 | 0.00 | 0.00 | 0.00 | 53 | 1010.6 |
| 20260505233206 | 70 | 65 | 0.9 | 2.6 | 0.00 | 0.00 | 0.00 | 53 | 1010.6 |
| 20260505232704 | 70 | 69 | 0.9 | 7.0 | 0.00 | 0.00 | 0.00 | 53 | 1010.8 |
| 20260505232201 | 70 | 354 | 4.3 | 7.0 | 0.00 | 0.00 | 0.00 | 52 | 1010.6 |